STARLINK-4570, 53690

Orbit data source: Space-Track

STARLINK-4570, 53690 is a payload satellite owned by SpaceX/Seattle (US) in SSO that was launched on Wed, 31 Aug 2022 UTC via an FALCON 9 launch vehicle from the Air Force Western Test Range (AFWTR). Payload-class satellites include a variety of spacecraft equipped with specific instruments for various scientific and technological missions. These include communications satellites like Starlink; space stations such as the ISS; scientific satellites like the Hubble; Earth observation satellites from companies like Planet Labs, Umbra, and HawkEye 360; GPS; miniature CubeSats for education and research; and military/defense satellites.

Loading next visibility...
Identifier
53690, 2022-105AU
Orbit
SSO
Country
Flag of USUS
Related business
Manufacturer
SpaceX/Seattle
Mission
Operational Commercial Communications
Bus & Motor
STARLINK, Unknown motor
Mass
300 kg wet, ~290 kg dry
Launch date (UTC)
2022-08-31 (4 years ago)
Launch vehicle
FALCON 9
Launch site
Air Force Western Test Range (AFWTR)
Object type
Payload
Rocket body
Debris
Shape & HBR
Box + 1 Pan, 10.1 m
Radar Cross Section
13.562 m², Large (>1 m²)

Expand to show TLE details & history
Last TLE update: 2 days ago

TLE from 2 days ago
0 STARLINK-4570
1 53690U 22105AU  26171.23550273  .00025182  00000-0  17489-2 0  9996
2 53690  97.3404  50.0964 0001980 107.9071 252.2373 15.05524693208665
Epoch: 2026-06-20T05:39Z
TLE epoch observation values (Epoch: 2026-06-20T05:39:07.435Z)
Latitude
0.00001°
Longitude
56.86239°
Altitude
553.387 km
Speed
7.585 km/s
True Right ascension
03h 20m 23s
True Declination
0° 00' 00"
Sunlit
Object was in daylight at epoch
Visualization orbit readout
Latitude
Unknown
Longitude
Unknown
Altitude
Unknown
Speed
Unknown
Apparent Right ascension
Unknown
Apparent Declination
Unknown
Sunlit
N/A
Visualization observer readout
Local Sidereal Time
21:28:08
Azimuth
Unknown
Elevation
Unknown
Doppler factor
Unknown
Orbital elements
Apogee altitude
548.249 km
Perigee altitude
545.507 km
Semi-major axis
6,925.015 km
Eccentricity
0.0002
Inclination
97.3404°
RAAN
50.0964°
Arg. of periapsis
107.9071°
True anomaly
252.21569°
Mean anomaly
252.2373°
Eccentric anomaly
252.2265°
Mean motion
3.76628 °/min
Orbital period
95.59 mins
BSTAR
0.0017489
Loading maneuver chart data...
Computing Atmospheric mass density...
Loading historical data...
Loading historical data...
Loading historical data...
Loading historical data...
Loading historical data...
Loading historical data...
Loading historical data...

Documentation

Showing up to 5 results
|